Location: Avon School (historical)
(37.7514°N, 90.2201°W)
Time: 00:02:59
(UTC+00:00)

Explorer 7 - Pass Details

Date: 21 December 2025
Orbit: 433 x 550 km, 50.2° (Epoch: 13 January)

Event Time Altitude Azimuth Distance (km) Brightness Sun altitude
Rises 23:27:53 0° 311° (NW) 2,471 10.5 -8.3°
Reaches altitude 10° 23:31:17 10° 345° (NNW) 1,572 9.1 -8.9°
Maximum altitude 23:32:38 12° 8° (N) 1,459 8.7 -9.2°
Drops below altitude 10° 23:33:59 10° 30° (NNE) 1,556 8.7 -9.4°
Enters shadow 23:34:16 - 35° (NE) 1,601 8.7 -9.5°
